User: anonymous   Login
Location: Champignolles
(47.0543°N, 4.5663°E)
Time: 16:41:36
(UTC+00:00)
Language:

Cosmos 1356 - Orbit

View from above orbital plane
View from above orbital plane
View from above satellite
View from above satellite

Ground track
Ground track

The orbit data is extracted from the following two-line orbital elements,

1 13153U 82039A   21062.77163642  .00005060  00000-0  12006-3 0  9995
2 13153  81.0903  42.2096 0004071  83.2036 276.9669 15.41490446127848
Epoch (UTC): 03 March 2021 18:31:09
Eccentricity: 0.0004071
inclination: 81.0903°
perigee height: 439 km
apogee height: 444 km
right ascension of ascending node: 42.2096°
argument of perigee: 83.2036°
revolutions per day: 15.41490446
mean anomaly at epoch: 276.9669°
orbit number at epoch: 12784

The dashed part of the orbit path shows where the satellite is in the earth's shadow,  

DLR